Weather History for Branson, MO

Change the Weather History Date:

Wednesday, March 13, 2013

  Actual Average (KHRO) Record (KHRO)
Temperature  
Mean Temperature 38 °F 48 °F  
Max Temperature 48 °F 59 °F 89 °F (1967)
Min Temperature 28 °F 37 °F 0 °F (1948)
Degree Days  
Heating Degree Days 27 17  
Month to date heating degree days 248  
Since 1 July heating degree days 3420  
Cooling Degree Days 0 0  
Month to date cooling degree days 0  
Year to date cooling degree days 0  
Moisture  
Dew Point 19 °F    
Average Humidity 51    
Maximum Humidity 65    
Minimum Humidity 25    
Precipitation  
Precipitation 0.00 in 0.12 in 0.93 in (1999)
Month to date precipitation 1.47  
Year to date precipitation 6.67  
Snow  
Snow 0.00 in 0.10 in 4.30 in (1999)
Month to date snowfall 1.3  
Since 1 July snowfall 10.5  
Snow Depth -    
Sea Level Pressure  
Sea Level Pressure 30.36 in    
Wind  
Wind Speed 7 mph (NW)    
Max Wind Speed 12 mph    
Max Gust Speed 17 mph    
Visibility 10 miles    
Events      
T = Trace of Precipitation, MM = Missing Value Source: NWS Daily Summary

Daily Weather History Graph

Daily Weather History Graph

Search for Another Location

Airport:

Trip Planner

Search our weather history database for the weather conditions in past years. The results will help you decide how hot, cold, wet, or windy it might be!

Date:

Astronomy

Mar. 13, 2013 Rise Set
Actual Time 7:26 AM CDT 7:18 PM CDT
Civil Twilight 7:00 AM CDT 7:44 PM CDT
Nautical Twilight 6:30 AM CDT 8:14 PM CDT
Astronomical Twilight 6:00 AM CDT 8:44 PM CDT
Moon 8:10 AM CDT (3/13) 9:30 PM CDT (3/13)
Length of Visible Light 12h 43m
Length of Day
11h 52m
Waxing Crescent, 4% of the Moon is Illuminated
Mar 13
Waxing Crescent
Mar 19
First Quarter
Mar 27
Full
Apr 2
Last Quarter
Apr 10
New

Hourly Weather History & Observations

Time (CDT) Temp. Windchill Dew Point Humidity Pressure Visibility Wind Dir Wind Speed Gust Speed Precip Events Conditions
12:15 AM 37.4 °F 30.8 °F 19.4 °F 48% 30.31 in 10.0 mi NW 9.2 mph - N/A   Clear
12:35 AM 35.6 °F 28.0 °F 19.4 °F 52% 30.31 in 10.0 mi NW 10.4 mph - N/A   Clear
12:55 AM 35.6 °F 28.6 °F 19.4 °F 52% 30.31 in 10.0 mi NW 9.2 mph - N/A   Clear
1:15 AM 35.6 °F 28.6 °F 19.4 °F 52% 30.31 in 10.0 mi NW 9.2 mph - N/A   Clear
1:55 AM 35.6 °F 30.7 °F 19.4 °F 52% 30.31 in 10.0 mi NW 5.8 mph - N/A   Clear
2:15 AM 33.8 °F 29.6 °F 19.4 °F 56% 30.31 in 10.0 mi WNW 4.6 mph - N/A   Clear
2:35 AM 32.0 °F 27.5 °F 19.4 °F 60% 30.31 in 10.0 mi WNW 4.6 mph - N/A   Clear
2:55 AM 32.0 °F 28.7 °F 19.4 °F 60% 30.31 in 10.0 mi WNW 3.5 mph - N/A   Clear
3:15 AM 32.0 °F 26.4 °F 19.4 °F 60% 30.31 in 10.0 mi WNW 5.8 mph - N/A   Clear
3:35 AM 32.0 °F 26.4 °F 19.4 °F 60% 30.31 in 10.0 mi WNW 5.8 mph - N/A   Clear
3:55 AM 32.0 °F 24.8 °F 19.4 °F 60% 30.32 in 10.0 mi NW 8.1 mph - N/A   Clear
4:15 AM 32.0 °F 24.2 °F 19.4 °F 60% 30.32 in 10.0 mi NW 9.2 mph - N/A   Clear
4:35 AM 32.0 °F 24.2 °F 19.4 °F 60% 30.32 in 10.0 mi NW 9.2 mph - N/A   Clear
4:55 AM 32.0 °F 23.6 °F 21.2 °F 64% 30.32 in 10.0 mi NW 10.4 mph - N/A   Clear
5:15 AM 32.0 °F 23.6 °F 21.2 °F 64% 30.33 in 10.0 mi NW 10.4 mph - N/A   Clear
5:35 AM 32.0 °F 25.6 °F 19.4 °F 60% 30.34 in 10.0 mi NW 6.9 mph - N/A   Clear
5:55 AM 30.2 °F 23.4 °F 19.4 °F 64% 30.35 in 10.0 mi NW 6.9 mph - N/A   Clear
6:15 AM 30.2 °F 22.6 °F 19.4 °F 64% 30.35 in 10.0 mi NW 8.1 mph - N/A   Clear
6:45 AM 30.2 °F 20.8 °F 19.4 °F 64% 30.35 in 10.0 mi NW 11.5 mph - N/A   Clear
7:50 AM 28.4 °F 20.4 °F 17.6 °F 64% 30.39 in 10.0 mi NW 8.1 mph - N/A   Clear
8:45 AM 30.2 °F 20.8 °F 17.6 °F 60% 30.41 in 10.0 mi NNW 11.5 mph - N/A   Clear
9:50 AM 32.0 °F 24.2 °F 17.6 °F 55% 30.43 in 10.0 mi NW 9.2 mph - N/A   Clear
10:48 AM 35.6 °F 27.5 °F 15.8 °F 44% 30.45 in 10.0 mi NW 11.5 mph 17.3 mph N/A   Clear
11:58 AM 37.4 °F 32.8 °F 17.6 °F 45% 30.45 in 10.0 mi WNW 5.8 mph - N/A   Scattered Clouds
12:47 PM 41.0 °F 34.7 °F 17.6 °F 39% 30.44 in 10.0 mi NNW 10.4 mph - N/A   Mostly Cloudy
1:50 PM 46.4 °F 41.9 °F 17.6 °F 32% 30.43 in 10.0 mi WNW 9.2 mph - N/A   Mostly Cloudy
2:45 PM 46.4 °F 42.4 °F 17.6 °F 32% 30.42 in 10.0 mi West 8.1 mph - N/A   Mostly Cloudy
3:50 PM 46.4 °F 41.1 °F 15.8 °F 29% 30.40 in 10.0 mi WNW 11.5 mph - N/A   Mostly Cloudy
5:45 PM 48.2 °F - 14.0 °F 25% 30.37 in 10.0 mi NNW 6.9 mph - N/A   Scattered Clouds
6:45 PM 46.4 °F 45.2 °F 15.8 °F 29% 30.38 in 10.0 mi West 3.5 mph - N/A   Partly Cloudy
7:45 PM 42.8 °F - 14.0 °F 31% 30.38 in 10.0 mi Calm Calm - N/A   Partly Cloudy
8:45 PM 39.2 °F - 19.4 °F 45% 30.38 in 10.0 mi Calm Calm - N/A   Clear
8:55 PM 41.0 °F - 15.8 °F 36% 30.38 in 10.0 mi Calm Calm - N/A   Clear
9:15 PM 39.2 °F - 15.8 °F 39% 30.38 in 10.0 mi Calm Calm - N/A   Clear
9:35 PM 37.4 °F - 23.0 °F 56% 30.38 in 10.0 mi Calm Calm - N/A   Clear
9:55 PM 37.4 °F - 23.0 °F 56% 30.38 in 10.0 mi Calm Calm - N/A   Partly Cloudy
10:15 PM 39.2 °F - 15.8 °F 39% 30.38 in 10.0 mi Calm Calm - N/A   Mostly Cloudy
10:35 PM 37.4 °F - 17.6 °F 45% 30.38 in 10.0 mi Calm Calm - N/A   Mostly Cloudy
10:55 PM 35.6 °F - 24.8 °F 65% 30.39 in 10.0 mi Calm Calm - N/A   Overcast
11:15 PM 37.4 °F - 17.6 °F 45% 30.39 in 10.0 mi Calm Calm - N/A   Overcast
11:55 PM 35.6 °F - 19.4 °F 52% 30.38 in 10.0 mi Calm Calm - N/A   Overcast